Weather Service Report


007 
ASUS43 KOAX 181810
RWRNE 

WEATHER ROUNDUP FOR NEBRASKA
NATIONAL WEATHER SERVICE OMAHA NE
100 PM CDT FRI APR 18 2014

NOTES: SATELLITE DATA IS BEING USED TO AUGMENT CLOUD COVER ABOVE
       12000 FEET.
       "FAIR" INDICATES FEW OR NO CLOUDS BELOW 12,000 FEET WITH NO
       SIGNIFICANT WEATHER AND/OR OBSTRUCTIONS TO VISIBILITY.

  * THESE STATIONS DO NOT REPORT WEATHER SUCH AS RAIN...SNOW OR FOG.
   
NEZ001>004-019>022-054>056-181900-
NEBRASKA PANHANDLE
  
CITY           SKY/WX    TMP DP  RH WIND       PRES   REMARKS
SCOTTSBLUFF    CLOUDY    74  38  27 S12G24    29.88F                  
6HR MIN TEMP:  36; 6HR MAX TEMP:  74;                                

ALLIANCE       CLOUDY    70  39  32 S20       29.88F                  
6HR MIN TEMP:  36; 6HR MAX TEMP:  71;                                

CHADRON        PTSUNNY   76  36  23 SW18      29.80F                  
6HR MIN TEMP:  37; 6HR MAX TEMP:  77;                                

KIMBALL        CLOUDY    71  24  17 S17       29.93F                  
SIDNEY         CLOUDY    69  35  28 S15       29.95F                  
6HR MIN TEMP:  38; 6HR MAX TEMP:  69;                                

$$
 
NEZ057>060-069>072-079>082-181900-
SOUTHWEST NEBRASKA
  
CITY           SKY/WX    TMP DP  RH WIND       PRES   REMARKS
NORTH PLATTE   MOSUNNY   66  40  38 S22G33    29.99F                  
6HR MIN TEMP:  38; 6HR MAX TEMP:  66;                                

IMPERIAL       MOSUNNY   68  38  33 S22G30    29.97F                  
6HR MIN TEMP:  37; 6HR MAX TEMP:  68;                                

LEXINGTON      MOSUNNY   62  44  52 S21G28    30.06F                  
MCCOOK         SUNNY     66  41  40 S20G32    30.03F                  
6HR MIN TEMP:  38; 6HR MAX TEMP:  66;                                

OGALLALA       PTSUNNY   68  36  30 S14       29.96F                  
$$
 
NEZ005>010-023>029-035>040-094-181900-
NORTH CENTRAL NEBRASKA
  
CITY           SKY/WX    TMP DP  RH WIND       PRES   REMARKS
VALENTINE      MOSUNNY   71  35  26 S20G28    29.88F                  
6HR MIN TEMP:  42; 6HR MAX TEMP:  71;                                

AINSWORTH      MOSUNNY   69  37  30 S30       29.91F                  
BROKEN BOW     MOSUNNY   63  41  44 S23G30    30.03F                  
6HR MIN TEMP:  38; 6HR MAX TEMP:  63;                                

O'NEILL        SUNNY     65  36  33 S26G39    30.01F                  
ORD            MOSUNNY   64  40  41 S22G37    30.04F                  
6HR MIN TEMP:  34; 6HR MAX TEMP:  64;                                

THEDFORD       MOSUNNY   67  34  29 S26G32    29.95F                  
$$
 
NEZ041-046>049-061>064-073>077-083>087-181900-
SOUTH CENTRAL NEBRASKA
  
CITY           SKY/WX    TMP DP  RH WIND       PRES   REMARKS
GRAND ISLAND   MOSUNNY   63  41  44 S24G31    30.11F                  
6HR MIN TEMP:  37; 6HR MAX TEMP:  64;                                

AURORA         MOSUNNY   63  41  44 S22G29    30.13F                  
HASTINGS       MOSUNNY   63  40  42 S20G29    30.11F                  
6HR MIN TEMP:  36; 6HR MAX TEMP:  63;                                

HEBRON         SUNNY     62  40  43 S16G23    30.18F                  
HOLDREGE       MOSUNNY   63  41  45 S23G32    30.08F                  
KEARNEY *      MOSUNNY   63  43  48 S25G36    30.09F                  
YORK           SUNNY     63  39  42 S23G29    30.15F                  
$$
 
NEZ011>018-030>034-042>045-181900-
NORTHEAST NEBRASKA
  
CITY           SKY/WX    TMP DP  RH WIND       PRES   REMARKS
NORFOLK        SUNNY     63  38  39 S21G31    30.13F                  
6HR MIN TEMP:  36; 6HR MAX TEMP:  63;                                

ALBION         SUNNY     63  39  41 S25G32    30.10F                  
BLAIR          SUNNY     59  32  36 SE17G23   30.21F                  
COLUMBUS *     SUNNY     61  39  44 S21G28    30.16F                  
FREMONT        SUNNY     62  32  32 SE15G23   30.20F                  
TEKAMAH        SUNNY     62  32  32 SE18G29   30.20F                  
6HR MIN TEMP:  26; 6HR MAX TEMP:  63;                                

$$

NEZ050>053-065>068-078-088>093-181900-
SOUTHEAST NEBRASKA
  
CITY           SKY/WX    TMP DP  RH WIND       PRES   REMARKS
LINCOLN        SUNNY     65  37  35 S20G26    30.20F                  
6HR MIN TEMP:  33; 6HR MAX TEMP:  65;                                

OMAHA EPPLEY   SUNNY     60  33  36 SE13G23   30.23F                  
6HR MIN TEMP:  30; 6HR MAX TEMP:  61;                                

BEATRICE       SUNNY     64  37  37 S12G18    30.20F                  
NEBRASKA CITY  SUNNY     61  35  37 S13G21    30.24F                  
PLATTSMOUTH    SUNNY     61  31  32 SE15G21   30.24F                  
$$

NEZ044-045-051>053-067-181900-
OMAHA AREA
  
CITY           SKY/WX    TMP DP  RH WIND       PRES   REMARKS
OMAHA EPPLEY   SUNNY     60  33  36 SE13G23   30.23F                  
6HR MIN TEMP:  30; 6HR MAX TEMP:  61;                                

BLAIR          SUNNY     59  32  36 SE17G23   30.21F                  
FREMONT        SUNNY     62  32  32 SE15G23   30.20F                  
MILLARD        SUNNY     60  34  38 SE13G18   30.23F                  
OFFUTT AFB     SUNNY     61  36  38 SE10G20   30.23F                  
PLATTSMOUTH    SUNNY     61  31  32 SE15G21   30.24F                  
WAHOO          FAIR      62  31  31 S22G32    30.20F                  
$$

Return to Home page


Western Regional Climate Center, wrcc@dri.edu